Probability
0 0 0 0 0 0 0 0 0 0 0 0 0 0 0 0 0 0 0 0 0 0 0 0 0 0 0 0 0 0 0 0 0 0 0 0 0 0 0 0 0 0 0
0 0 0 0 0 0 0 0 0 0 0 0 0 0 0 0 0 0 0 0 0 0 0 0 0 0 0 0 0 0 0 0 0 0 0 0 0 0 0 0 0 0 0
0 0 0 0 0 0 0 0 0 0 0 0 0 0 0 0 0 0 0 0 0 0 0 0 0 0 0 0 0 0 0 0 0 0 0 0 0 0 0 0 0 0 0
0 0 0 0 0 0 0 0 0 0 0 0 0 0 0 0 0 0 0 0 0 0 0 0 0 0 0 0 0 0 0 0 0 0 0 0 0 0 0 0 0 0 0
0 0 0 0 0 0 0 0 0 0 0 0 0 0 0 0 0 0 0 0 0 0 0 0 0 0 0 0 0 0 0 0 0 0 0 0 0 0 0 0 0 0 0
0 0 0 0 0 0 0 0 0 0 0 0 0 0 0 0 0 0 0 0 0 0 0 0 0 0 0 0 0 0 0 0 0 0 0 0 0 0 0 0 0 0 0
0 0 0 0 0 0 0 0 0 0 0 0 0 0 0 0 0 0 0 0 0 0 0 0 0 0 0 0 0 0 0 0 0 0 0 0 0 0 0 0 0 0 0
0 0 0 0 0 0 0 0 0 0 0 0 0 0 0 0 0 0 0 0 0 0 0 0 0 0 0 0 0 0 0 0 0 0 0 0 0 0 0 0 0 0 0
0 0 0 0 0 0 0 0 0 0 0 0 0 0 0 0 0 0 0 0 0 0 0 0 0 0 0 0 0 0 0 0 0 0 0 0 0 0 0 0 0 0 0
0 0 0 0 0 0 0 0 0 0 0 0 0 0 0 0 0 0 0 0 0 0 0 0 0 0 0 0 0 0 0 0 0 0 0 0 0 0 0 0 0 0 0
0 0 0 0 0 0 0 0 0 0 0 0 0 0 0 0 0 0 0 0 0 0 0 0 0 0 0 0 0 0 0 0 0 0 0 0 0 0 0 0 0 0 0
0 0 0 0 0 0 0 0 0 0 0 0 0 0 0 0 0 0 0 0 0 0 0 0 0 0 0 0 0 0 0 0 0 0 0 0 0 0 0 0 0 0 0
0 0 0 0 0 0 0 0 0 0 0 0 0 0 0 0 0 0 0 0 0 0 0 0 0 0 0 0 0 0 0 0 0 0 0 0 0 0 0 0 0 0 0
0 0 0 0 0 0 0 0 0 0 0 0 0 0 0 0 0 0 0 0 0 0 0 0 0 0 0 0 0 0 0 0 0 0 0 0 0 0 0 0 0 0 0
0 0 0 0 0 0 0 0 0 0 0 0 0 0 0 0 0 0 0 0 0 0 0 0 0 0 0 0 0 0 0 0 0 0 0 0 0 0 0 0 0 0 0
0 0 0 0 0 0 0 0 0 0 0 0 0 0 0 0 0 0 0 0 0 0 0 0 0 0 0 0 0 0 0 0 0 0 0 0 0 0 0 0 0 0 0
0 0 0 0 0 0 0 0 0 0 0 0 0 0 0 0 0 0 0 0 0 0 0 0 0 0 0 0 0 0 0 0 0 0 0 0 0 0 0 0 0 0 0
0 0 0 0 0 0 0 0 0 0 0 0 0 0 0 0 0 0 0 0 0 0 0 0 0 0 0 0 0 0 0 0 0 0 0 0 0 0 0 0 0 0 0
0 0 0 0 0 0 0 0 0 0 0 0 0 0 0 0 0 0 0 0 0 0 0 0 0 0 0 0 0 0 0 0 0 0 0 0 0 0 0 0 0 0 0
0 0 0 0 0 0 0 0 0 0 0 0 0 0 0 0 0 0 0 0 0 0 0 0 0 0 0 0 0 0 0 0 0 0 0 0 0 0 0 0 0 0 0
0 0 0 0 0 0 0 0 0 0 0 0 0 0 0 0 0 0 0 0 0 0 0 0 0 0 0 0 0 0 0 0 0 0 0 0 0 0 0 0 0 0 0
0 0 0 0 0 0 0 0 0 0 0 0 0 0 0 0 0 0 0 0 0 0 0 0 0 0 0 0 0 0 0 0 0 0 0 0 0 0 0 0 0 0 0
0 0 0 0 0 0 0 0 0 0 0 0 0 0 0 0 0 0 0 0 0 0 0 0 0 0 0 0 0 0 0 0 0 0 0 0 0 0 0 0 0 0 0
0 0 0 0 0 0 0 0 0 0 0 0 0 0 0 0 0 0 0 0 0 0 0 0 0 0 0 0 0 0 0 0 0 0 0 0 0 0 0 0 0 0 0
0 0 0 0 0 0 0 0 0 0 0 0 0 0 0 0 0 0 0 0 0 0 0 0 0 0 0 0 0 0 0 0 0 0 0 0 0 0 0 0 0 0 0
0 0 0 0 0 0 0 0 0 0 0 0 0 0 0 0 0 0 0 0 0 0 0 0 0 0 0 0 0 0 0 0 0 0 0 0 0 0 0 0 0 0 0
Height
5826 5825 5824 5823 5821 5820 5818 5816 5815 5813 5811 5809 5808 5806 5804 5802 5800 5798 5796 5794 5792 5790 5788 5787 5785 5783 5782 5781 5779 5778 5778 5777 5777 5777 5777 5778 5778 5779 5780 5781 5782 5783 5785
5819 5818 5816 5815 5813 5812 5810 5809 5807 5805 5803 5801 5799 5797 5795 5793 5791 5789 5787 5785 5783 5780 5778 5776 5774 5773 5771 5769 5768 5767 5766 5765 5765 5765 5765 5765 5766 5767 5768 5769 5770 5771 5773
5811 5810 5808 5806 5804 5803 5802 5800 5798 5796 5793 5791 5789 5787 5785 5783 5781 5779 5777 5774 5772 5770 5768 5765 5763 5761 5759 5757 5756 5754 5753 5753 5752 5752 5752 5752 5753 5753 5755 5756 5757 5759 5760
5803 5801 5800 5797 5795 5793 5792 5790 5788 5786 5783 5781 5779 5777 5775 5773 5770 5768 5766 5763 5760 5758 5756 5754 5751 5749 5747 5744 5743 5741 5740 5739 5738 5738 5738 5738 5738 5739 5740 5741 5743 5745 5746
5792 5791 5789 5787 5785 5783 5781 5779 5777 5774 5772 5770 5767 5766 5764 5762 5759 5757 5754 5751 5749 5746 5743 5741 5738 5736 5733 5731 5729 5727 5725 5724 5724 5723 5723 5723 5723 5724 5725 5726 5728 5730 5731
5782 5780 5778 5776 5773 5772 5770 5767 5765 5762 5761 5757 5755 5754 5752 5749 5747 5745 5741 5738 5736 5733 5730 5727 5724 5722 5719 5717 5714 5712 5711 5710 5709 5708 5707 5707 5707 5708 5709 5710 5712 5713 5715
5772 5769 5767 5765 5762 5760 5758 5755 5753 5750 5748 5743 5741 5741 5739 5737 5735 5731 5727 5725 5722 5719 5716 5713 5710 5707 5704 5702 5699 5697 5695 5694 5693 5692 5692 5691 5691 5692 5693 5694 5695 5697 5699
5760 5758 5756 5753 5750 5747 5745 5742 5739 5736 5734 5730 5727 5724 5724 5725 5721 5717 5714 5711 5708 5704 5701 5697 5694 5691 5688 5686 5684 5681 5680 5679 5678 5677 5676 5675 5675 5676 5676 5677 5678 5680 5681
5749 5746 5744 5740 5737 5734 5732 5729 5725 5722 5719 5716 5712 5709 5707 5708 5706 5705 5701 5697 5693 5689 5685 5681 5678 5675 5672 5670 5667 5665 5664 5663 5662 5661 5660 5659 5659 5659 5660 5660 5661 5663 5664
5737 5734 5730 5727 5724 5720 5717 5714 5710 5707 5703 5701 5697 5694 5691 5688 5686 5686 5687 5683 5678 5674 5670 5666 5662 5659 5656 5654 5651 5649 5647 5646 5646 5644 5644 5643 5643 5643 5643 5643 5644 5645 5647
5724 5720 5717 5713 5709 5705 5702 5698 5694 5691 5687 5684 5681 5678 5675 5672 5668 5665 5666 5666 5662 5658 5654 5650 5646 5643 5640 5637 5635 5632 5631 5630 5629 5628 5626 5626 5625 5625 5625 5626 5626 5627 5629
5710 5706 5701 5697 5693 5690 5686 5682 5678 5674 5671 5668 5664 5661 5657 5655 5652 5647 5645 5645 5643 5641 5636 5633 5630 5627 5623 5620 5617 5615 5613 5612 5611 5610 5609 5608 5607 5607 5607 5607 5608 5609 5609
5695 5690 5685 5681 5677 5673 5669 5664 5660 5657 5653 5650 5647 5643 5640 5637 5634 5630 5626 5625 5623 5622 5619 5617 5613 5609 5606 5602 5599 5597 5596 5595 5593 5592 5591 5590 5589 5588 5588 5588 5588 5589 5589
5680 5675 5669 5665 5660 5655 5651 5646 5642 5639 5635 5632 5628 5625 5621 5619 5615 5611 5608 5605 5602 5602 5601 5600 5596 5592 5588 5584 5581 5579 5578 5577 5575 5573 5572 5571 5570 5569 5569 5568 5568 5568 5569
5664 5659 5653 5648 5643 5637 5632 5627 5624 5620 5616 5613 5609 5606 5602 5600 5596 5593 5589 5586 5582 5581 5583 5582 5578 5574 5569 5565 5563 5560 5559 5557 5556 5554 5553 5552 5550 5549 5549 5548 5548 5548 5548
5647 5641 5635 5630 5624 5619 5613 5608 5604 5600 5596 5593 5590 5586 5584 5581 5577 5573 5570 5567 5563 5561 5562 5565 5560 5555 5551 5547 5544 5542 5540 5538 5537 5535 5533 5532 5530 5529 5528 5527 5526 5526 5526
5629 5623 5617 5611 5605 5599 5594 5588 5585 5580 5576 5574 5570 5566 5564 5560 5557 5554 5550 5547 5545 5541 5541 5545 5540 5536 5532 5528 5525 5522 5520 5519 5517 5515 5513 5512 5510 5509 5507 5506 5505 5504 5504
5610 5603 5597 5591 5585 5579 5574 5569 5565 5560 5556 5553 5550 5546 5544 5540 5537 5534 5530 5528 5525 5522 5521 5523 5520 5516 5513 5509 5505 5502 5500 5499 5498 5496 5493 5492 5490 5488 5486 5484 5483 5482 5481
5590 5582 5576 5570 5564 5558 5553 5548 5543 5540 5536 5533 5529 5526 5523 5519 5517 5514 5510 5508 5505 5503 5501 5501 5501 5496 5493 5489 5485 5483 5481 5479 5477 5475 5473 5471 5469 5467 5465 5463 5461 5459 5458
5568 5561 5554 5548 5542 5536 5531 5526 5522 5519 5515 5512 5509 5505 5503 5499 5497 5493 5491 5489 5486 5483 5481 5480 5479 5477 5473 5469 5465 5464 5461 5458 5457 5455 5453 5451 5449 5446 5444 5441 5439 5437 5435
5545 5538 5531 5525 5519 5514 5509 5504 5501 5498 5495 5492 5488 5485 5482 5479 5476 5473 5471 5469 5465 5463 5461 5459 5458 5456 5453 5449 5446 5442 5440 5438 5437 5435 5433 5431 5428 5426 5423 5419 5416 5414 5412
5522 5515 5508 5502 5497 5491 5486 5482 5479 5477 5474 5471 5469 5465 5462 5459 5456 5453 5451 5449 5446 5444 5442 5439 5437 5435 5433 5429 5425 5422 5420 5418 5419 5416 5412 5411 5407 5406 5402 5398 5395 5392 5389
5499 5492 5486 5480 5475 5470 5465 5461 5457 5455 5454 5451 5448 5445 5443 5440 5436 5434 5431 5428 5426 5424 5422 5420 5417 5416 5412 5408 5404 5402 5400 5399 5399 5396 5391 5392 5388 5385 5382 5378 5374 5370 5366
5477 5471 5465 5459 5454 5450 5444 5441 5438 5435 5434 5432 5429 5426 5423 5421 5417 5414 5412 5410 5408 5405 5401 5398 5398 5396 5392 5388 5384 5382 5380 5379 5379 5376 5371 5371 5368 5364 5361 5358 5353 5348 5344
5458 5451 5445 5440 5435 5431 5426 5422 5419 5417 5415 5413 5410 5407 5404 5402 5398 5394 5393 5392 5390 5386 5381 5378 5376 5375 5372 5369 5365 5362 5361 5359 5359 5357 5352 5349 5348 5343 5341 5338 5333 5327 5322
5439 5433 5428 5422 5417 5413 5408 5404 5401 5399 5397 5395 5392 5388 5385 5382 5379 5375 5373 5372 5371 5367 5362 5359 5356 5354 5352 5349 5346 5344 5342 5339 5339 5338 5334 5329 5326 5321 5321 5320 5313 5307 5301
Wind_Speed
29 29 29 30 31 31 32 32 33 34 34 35 35 36 37 37 38 39 39 40 41 41 42 43 43 44 44 45 45 46 47 48 49 50 50 51 51 51 52 52 52 52 51
33 33 34 34 35 36 36 36 37 38 39 39 39 40 40 41 41 42 43 44 44 45 46 46 47 47 47 48 48 49 49 50 51 52 53 53 54 54 54 55 55 55 55
36 37 38 39 40 40 40 40 41 42 42 43 43 44 44 45 45 46 46 47 48 48 49 50 50 51 51 51 52 52 52 52 53 54 54 55 56 56 57 57 57 57 57
40 41 42 43 44 44 44 44 45 45 46 46 47 48 48 48 49 49 49 50 51 52 52 53 53 54 54 55 55 55 55 55 55 55 56 57 57 58 58 59 59 59 60
44 45 45 46 47 48 48 48 49 50 50 50 51 51 51 51 52 52 52 53 54 54 55 55 56 56 57 58 58 58 58 58 57 57 57 57 58 58 59 60 60 61 61
46 47 48 49 50 51 51 52 53 53 54 54 55 55 55 55 55 55 55 56 56 56 57 57 58 59 59 60 60 60 60 59 59 58 58 58 58 59 59 60 61 61 62
47 49 50 52 53 54 55 55 56 56 57 58 59 58 58 58 57 57 58 58 58 59 59 60 61 61 61 61 61 62 61 61 60 60 59 59 59 59 60 60 61 62 62
50 52 53 54 56 57 57 58 59 60 60 62 62 62 61 60 59 59 60 59 60 61 61 62 62 62 62 62 62 62 62 61 60 60 60 60 60 60 61 61 61 62 62
52 53 55 56 58 59 60 61 62 62 63 64 65 65 65 63 62 61 60 60 61 61 62 62 62 61 62 61 62 62 62 61 61 61 61 61 61 61 60 60 61 61 62
54 56 57 59 60 61 62 63 64 65 66 66 67 67 67 67 67 64 61 61 61 61 61 62 62 62 61 61 61 62 62 62 62 61 61 61 60 60 60 60 61 61 62
56 57 59 61 62 64 65 66 67 68 69 69 69 69 69 68 68 67 65 63 62 61 62 62 62 61 61 61 61 61 62 61 61 61 61 61 61 61 61 61 62 62 62
57 59 61 63 64 65 66 67 68 69 69 70 70 70 69 69 68 68 68 65 64 63 63 62 61 61 60 61 61 61 61 61 61 61 61 61 61 61 62 62 63 63 63
56 58 61 63 64 66 67 69 69 70 70 70 70 70 70 70 69 69 68 67 65 64 63 61 60 60 60 61 62 62 61 61 61 62 62 61 62 62 63 63 63 64 64
56 58 60 62 63 65 67 68 69 70 70 71 71 71 71 70 69 69 68 68 66 64 62 59 59 60 61 63 63 63 63 62 62 62 62 62 63 63 63 64 64 64 65
58 59 61 62 64 65 67 68 69 69 70 71 71 71 71 70 69 68 68 67 67 65 61 59 60 60 62 63 64 64 63 63 62 62 63 63 63 63 64 64 65 66 66
61 62 63 64 65 66 67 68 68 69 69 69 70 70 69 69 68 68 68 67 67 66 62 59 61 61 63 63 64 64 64 64 63 63 63 63 63 64 65 65 66 66 67
64 65 65 65 66 66 67 68 68 68 68 68 69 69 68 69 68 68 68 68 67 67 64 61 63 63 64 64 65 66 65 64 64 64 64 65 65 65 65 66 67 68 68
68 68 67 67 67 67 68 68 68 68 68 68 68 68 68 69 68 68 68 67 66 66 65 62 63 64 64 65 66 66 65 65 65 65 65 65 65 65 66 66 67 68 69
70 70 70 69 68 68 68 68 68 68 67 67 67 67 67 67 66 66 66 65 65 65 65 64 64 65 65 65 66 66 65 65 66 66 66 65 66 66 67 67 68 69 69
72 72 71 70 69 69 69 69 68 67 67 66 66 65 65 65 64 64 65 65 65 65 66 65 65 65 64 65 66 65 66 66 66 66 66 66 66 66 66 67 68 69 70
74 73 71 70 69 69 68 68 68 67 66 65 64 63 62 62 63 63 63 63 64 65 65 65 65 64 64 65 65 65 65 65 64 64 64 65 65 65 66 67 68 69 69
72 71 70 69 68 68 67 67 66 65 64 63 62 61 61 61 61 62 63 63 64 64 64 64 64 64 63 64 64 65 64 64 63 63 65 64 65 65 65 67 68 69 70
70 69 68 67 66 65 65 64 63 63 61 60 59 59 59 59 60 61 62 63 63 63 63 63 63 62 62 63 64 64 64 64 62 63 65 64 64 64 65 67 68 68 69
67 66 65 64 62 61 61 60 59 58 57 56 56 57 58 59 60 61 61 61 61 61 62 62 62 61 61 62 63 63 64 63 62 63 64 64 63 64 65 65 66 67 68
64 63 61 60 59 58 58 57 56 55 55 54 55 56 57 58 59 61 60 60 60 60 61 62 62 61 60 61 61 62 62 62 61 61 63 63 62 64 64 63 63 64 65
60 59 58 57 57 56 55 54 54 53 53 53 53 54 56 56 57 58 59 59 59 59 60 60 60 60 59 59 59 60 60 61 61 60 60 62 62 64 63 60 60 60 60
Wind_Direction
273 275 277 279 281 283 285 286 287 288 289 289 290 290 290 291 291 290 290 290 290 290 289 289 288 287 286 283 281 279 276 274 271 269 268 267 266 265 265 264 264 263 262
273 275 276 278 280 281 283 284 285 286 287 287 288 288 289 289 289 289 289 289 289 288 288 288 288 287 286 284 282 280 278 275 273 271 269 267 266 265 264 263 263 263 263
272 273 275 277 278 280 281 282 283 284 285 285 286 286 287 288 288 288 288 288 287 287 287 287 287 287 286 284 283 281 279 276 274 272 270 268 266 265 263 262 262 262 261
272 273 274 275 277 279 280 281 281 282 283 283 284 285 286 286 286 287 287 286 286 286 286 286 286 286 285 284 283 282 280 278 276 273 271 269 267 265 263 262 261 260 260
273 274 274 275 276 277 278 279 280 281 281 282 282 283 284 285 285 286 286 285 285 286 286 285 285 285 285 284 283 282 280 279 277 275 273 270 267 265 264 262 261 260 259
275 275 275 275 276 276 277 277 278 280 281 281 281 282 283 284 284 285 285 284 285 285 285 284 284 284 284 283 282 281 280 279 277 276 274 271 269 267 265 263 262 261 260
275 275 275 275 276 277 277 278 279 280 280 281 281 282 282 283 284 284 284 285 285 285 284 284 284 284 283 282 281 280 279 278 277 276 274 272 270 268 266 265 263 262 261
274 276 277 277 278 278 279 279 280 280 280 281 282 282 283 283 284 284 284 285 285 285 284 284 284 283 282 281 280 279 279 278 277 276 274 273 271 270 268 266 265 264 262
277 278 278 278 278 279 279 280 280 280 281 281 282 283 283 283 282 283 283 283 283 284 284 283 283 282 282 281 280 279 278 278 277 276 275 273 272 270 269 267 266 265 264
278 278 278 278 278 279 279 279 279 280 280 281 281 282 283 283 283 283 282 282 282 282 282 282 281 281 281 280 279 278 278 277 276 275 275 273 272 270 269 268 267 265 265
279 279 279 278 278 278 278 278 278 279 279 280 281 281 282 282 283 284 283 282 281 280 280 281 280 280 280 279 278 278 277 277 276 275 274 273 272 270 269 269 267 266 266
281 280 279 279 279 278 278 278 278 278 279 279 280 281 281 282 282 282 283 283 281 280 280 280 280 280 280 280 279 278 278 278 277 275 274 273 272 271 270 270 268 268 267
283 282 281 281 280 279 279 278 278 278 278 279 279 279 280 281 281 281 281 282 281 280 280 280 280 280 280 280 279 279 278 278 277 275 275 274 273 272 271 271 270 269 269
286 285 284 283 281 280 279 278 278 278 278 278 278 278 279 279 280 280 280 280 280 280 279 279 279 280 280 280 279 278 279 278 277 276 275 275 274 273 272 271 271 271 270
288 287 285 284 282 281 280 279 279 278 278 277 277 277 278 278 278 279 279 279 279 279 278 278 279 279 280 280 280 279 279 278 278 277 276 276 275 274 273 272 272 271 271
290 288 287 286 284 283 282 281 280 279 278 277 277 277 277 277 277 277 278 279 279 279 278 278 278 278 279 280 279 279 278 278 277 277 277 276 276 276 275 274 273 273 272
290 289 288 286 285 284 283 282 280 279 278 277 277 276 276 276 276 276 277 278 278 278 278 277 277 278 279 279 278 278 278 277 277 277 277 277 277 276 276 275 275 274 273
291 289 287 286 284 283 282 281 280 279 278 277 277 276 276 275 275 276 276 277 277 277 278 278 278 278 278 278 278 278 277 277 277 277 277 277 277 276 276 276 276 275 274
291 289 287 286 284 283 281 280 279 279 278 277 276 276 275 275 275 275 275 276 276 276 276 277 277 277 277 277 277 277 277 277 277 277 276 277 277 277 277 277 276 276 275
291 289 288 286 284 283 281 280 279 278 277 277 276 275 275 274 274 274 275 275 275 275 276 277 277 277 277 277 277 276 276 276 276 276 276 276 277 277 278 278 277 276 276
291 289 287 285 284 282 281 279 279 278 277 277 276 275 274 274 274 274 275 275 275 275 276 277 277 277 276 276 276 275 275 275 275 276 276 277 277 278 278 278 278 278 278
291 289 287 285 283 282 280 280 279 278 277 277 276 275 274 273 274 274 275 275 275 275 276 277 277 277 276 275 275 274 274 274 275 276 276 277 278 278 278 278 278 278 279
291 289 287 285 284 283 282 281 280 279 278 278 276 275 274 274 274 275 276 276 276 276 276 276 277 276 275 274 274 274 274 275 276 276 276 278 278 278 278 279 279 280 280
290 289 287 286 285 284 283 282 281 281 280 279 277 275 274 275 275 276 276 277 277 277 277 277 276 276 275 275 274 274 274 275 276 276 277 278 278 278 279 279 280 280 280
292 291 290 288 287 285 284 283 282 281 280 279 278 277 277 276 276 276 276 276 277 277 277 277 277 276 275 275 274 274 274 275 276 277 278 279 278 279 279 280 281 281 280
294 293 291 290 289 287 286 284 283 282 281 281 280 279 279 278 277 277 277 277 277 277 276 277 276 276 276 275 275 275 275 275 276 277 278 279 279 280 280 280 281 281 280